This demonstration page uses our WeatherBlox Daily Observations layout. Learn more.

Left ArrowRight Arrow

Hourly Observations for November 27, 2016

Temp ( °F °C ) Dew Point ( °F °C ) Humidity (%) Winds ( mph kmh ) Pressure ( in mb ) Visibility ( mi km ) Precip ( " mm )
12:53 am 00:53 Cloudy 54 12.2 53 11.7 97 97 SSE 13 20 29.98 1015 10 16 0.00 0.00
1:53 am 01:53 Cloudy 55 12.8 53 11.7 93 93 SSE 15 24 29.95 1014 10 16 0.00 0.00
2:53 am 02:53 Cloudy 55 12.8 53 11.7 93 93 SE 15 24 29.90 1013 10 16 0.00 0.00
3:53 am 03:53 Cloudy 54 12.2 53 11.7 97 97 SSE 18 30 29.86 1011 10 16 0.00 0.00
4:53 am 04:53 Cloudy 54 12.2 53 11.7 97 97 SSE 13 20 29.84 1011 10 16 0.00 0.00
5:53 am 05:53 Cloudy 54 12.2 53 11.7 97 97 SE 12 19 29.82 1010 10 16 0.00 0.00
6:28 am 06:28 Partly Cloudy 54 12 54 12 100 100 SSE 13 20 29.85 1011 10 16 0.00 0.00
6:53 am 06:53 Clear 54 12.2 53 11.7 97 97 SE 12 19 29.81 1010 10 16 0.00 0.00
7:53 am 07:53 Sunny 54 12.2 52 11.1 93 93 SE 8 13 29.81 1009 10 16 0.00 0.00
8:53 am 08:53 Sunny 54 12.2 52 11.1 93 93 SSE 7 11 29.82 1010 10 16 0.00 0.00
9:53 am 09:53 Sunny 57 13.9 52 11.1 83 83 SSE 15 24 29.79 1009 10 16 0.00 0.00
10:53 am 10:53 Sunny 63 17.2 52 11.1 68 68 S 13 20 29.77 1008 10 16 0.00 0.00
11:53 am 11:53 Sunny 68 20 51 10.6 55 55 S 10 17 29.72 1006 10 16 0.00 0.00
12:53 pm 12:53 Sunny 71 21.7 47 8.3 42 42 SW 15 24 29.67 1005 10 16 0.00 0.00
1:53 pm 13:53 Sunny 72 22.2 38 3.3 29 29 W 14 22 29.63 1003 10 16 0.00 0.00
2:53 pm 14:53 Sunny 72 22.2 36 2.2 27 27 WSW 13 20 29.61 1003 10 16 0.00 0.00
3:53 pm 15:53 Sunny 73 22.8 34 1.1 24 24 WSW 12 19 29.60 1002 10 16 0.00 0.00
4:53 pm 16:53 Sunny 70 21.1 29 -1.7 22 22 WSW 10 17 29.59 1002 10 16 0.00 0.00
5:53 pm 17:53 Clear 68 20 32 0 26 26 SW 9 15 29.57 1002 10 16 0.00 0.00
6:53 pm 18:53 Clear 60 15.6 37 2.8 42 42 SSW 5 7 29.59 1002 10 16 0.00 0.00
7:53 pm 19:53 Clear 60 15.6 40 4.4 47 47 S 7 11 29.58 1002 10 16 0.00 0.00
8:53 pm 20:53 Clear 63 17.2 36 2.2 37 37 W 13 20 29.57 1002 10 16 0.00 0.00
9:53 pm 21:53 Clear 59 15 35 1.7 41 41 W 7 11 29.59 1002 10 16 0.00 0.00
10:53 pm 22:53 Clear 55 12.8 34 1.1 45 45 SW 7 11 29.58 1002 10 16 0.00 0.00
11:53 pm 23:53 Clear 50 10 35 1.7 57 57 NNW 7 11 29.59 1002 10 16 0.00 0.00

Powered by AerisWeather